owner,sensor,date,latitude,longitude,vertical_datum,mass_concentration_of_oxygen_in_sea_water,qcFlag 
DISL,ioos:station:DISL:CATA:1,2013-10-01T00:00:00Z,30.3085,-88.1395,2.227,7.26,1111122 
DISL,ioos:station:DISL:CATA:1,2013-10-01T00:30:00Z,30.3085,-88.1395,2.243,5.87,1111122 
DISL,ioos:station:DISL:CATA:1,2013-10-01T01:00:00Z,30.3085,-88.1395,2.254,7.19,1111122 
DISL,ioos:station:DISL:CATA:1,2013-10-01T01:30:00Z,30.3085,-88.1395,2.262,6.19,1111122 
DISL,ioos:station:DISL:CATA:1,2013-10-01T02:00:00Z,30.3085,-88.1395,2.273,6.07,1111122 
DISL,ioos:station:DISL:CATA:1,2013-10-01T02:30:00Z,30.3085,-88.1395,2.296,6.12,1111122 
DISL,ioos:station:DISL:CATA:1,2013-10-01T03:00:00Z,30.3085,-88.1395,2.315,5.52,1111122 
DISL,ioos:station:DISL:CATA:1,2013-10-01T03:30:00Z,30.3085,-88.1395,2.326,4.92,1111122 
DISL,ioos:station:DISL:CATA:1,2013-10-01T04:00:00Z,30.3085,-88.1395,2.348,5.93,1111122 
DISL,ioos:station:DISL:CATA:1,2013-10-01T04:30:00Z,30.3085,-88.1395,2.375,5.44,1111122 
DISL,ioos:station:DISL:CATA:1,2013-10-01T05:00:00Z,30.3085,-88.1395,2.381,5.48,1111122 
DISL,ioos:station:DISL:CATA:1,2013-10-01T05:30:00Z,30.3085,-88.1395,2.39,6.09,1111122 
DISL,ioos:station:DISL:CATA:1,2013-10-01T06:00:00Z,30.3085,-88.1395,2.392,6.02,1111122 
DISL,ioos:station:DISL:CATA:1,2013-10-01T06:30:00Z,30.3085,-88.1395,2.405,5.85,1111122 
DISL,ioos:station:DISL:CATA:1,2013-10-01T07:00:00Z,30.3085,-88.1395,2.407,5.47,1111122 
DISL,ioos:station:DISL:CATA:1,2013-10-01T07:30:00Z,30.3085,-88.1395,2.41,5.69,1111122 
DISL,ioos:station:DISL:CATA:1,2013-10-01T08:00:00Z,30.3085,-88.1395,2.417,5.34,1111122 
DISL,ioos:station:DISL:CATA:1,2013-10-01T08:30:00Z,30.3085,-88.1395,2.418,4.62,1111122 
DISL,ioos:station:DISL:CATA:1,2013-10-01T09:00:00Z,30.3085,-88.1395,2.425,4.48,1111122 
DISL,ioos:station:DISL:CATA:1,2013-10-01T09:30:00Z,30.3085,-88.1395,2.433,4.16,1111122 
DISL,ioos:station:DISL:CATA:1,2013-10-01T10:00:00Z,30.3085,-88.1395,2.431,6.15,1111122 
DISL,ioos:station:DISL:CATA:1,2013-10-01T10:30:00Z,30.3085,-88.1395,2.434,6.5,1111122 
DISL,ioos:station:DISL:CATA:1,2013-10-01T11:00:00Z,30.3085,-88.1395,2.439,7.21,1111122 
DISL,ioos:station:DISL:CATA:1,2013-10-01T11:30:00Z,30.3085,-88.1395,2.448,7.53,1111122 
DISL,ioos:station:DISL:CATA:1,2013-10-01T12:00:00Z,30.3085,-88.1395,2.45,7.51,1111122 
DISL,ioos:station:DISL:CATA:1,2013-10-01T12:30:00Z,30.3085,-88.1395,2.452,7.53,1111122 
DISL,ioos:station:DISL:CATA:1,2013-10-01T13:00:00Z,30.3085,-88.1395,2.462,7.57,1111122 
DISL,ioos:station:DISL:CATA:1,2013-10-01T13:30:00Z,30.3085,-88.1395,2.456,7.57,1111122 
DISL,ioos:station:DISL:CATA:1,2013-10-01T14:00:00Z,30.3085,-88.1395,2.453,7.62,1111122 
DISL,ioos:station:DISL:CATA:1,2013-10-01T14:30:00Z,30.3085,-88.1395,2.433,7.71,1111122 
DISL,ioos:station:DISL:CATA:1,2013-10-01T15:00:00Z,30.3085,-88.1395,2.418,7.73,1111122 
DISL,ioos:station:DISL:CATA:1,2013-10-01T15:30:00Z,30.3085,-88.1395,2.396,7.88,1111122 
DISL,ioos:station:DISL:CATA:1,2013-10-01T16:00:00Z,30.3085,-88.1395,2.392,7.92,1111122 
DISL,ioos:station:DISL:CATA:1,2013-10-01T16:30:00Z,30.3085,-88.1395,2.375,8.02,1111122 
DISL,ioos:station:DISL:CATA:1,2013-10-01T17:00:00Z,30.3085,-88.1395,2.379,8.2,1111122 
DISL,ioos:station:DISL:CATA:1,2013-10-01T17:30:00Z,30.3085,-88.1395,2.374,8.31,1111122 
DISL,ioos:station:DISL:CATA:1,2013-10-01T18:00:00Z,30.3085,-88.1395,2.368,8.31,1111122 
DISL,ioos:station:DISL:CATA:1,2013-10-01T18:30:00Z,30.3085,-88.1395,2.357,8.22,1111122 
DISL,ioos:station:DISL:CATA:1,2013-10-01T19:00:00Z,30.3085,-88.1395,2.336,8.16,1111122 
DISL,ioos:station:DISL:CATA:1,2013-10-01T19:30:00Z,30.3085,-88.1395,2.321,8.27,1111122 
DISL,ioos:station:DISL:CATA:1,2013-10-01T20:00:00Z,30.3085,-88.1395,2.307,8.3,1111122 
DISL,ioos:station:DISL:CATA:1,2013-10-01T20:30:00Z,30.3085,-88.1395,2.298,8.37,1111122 
DISL,ioos:station:DISL:CATA:1,2013-10-01T21:00:00Z,30.3085,-88.1395,2.273,8.41,1111122 
DISL,ioos:station:DISL:CATA:1,2013-10-01T21:30:00Z,30.3085,-88.1395,2.283,8.4,1111122 
DISL,ioos:station:DISL:CATA:1,2013-10-01T22:00:00Z,30.3085,-88.1395,2.296,8.36,1111122 
DISL,ioos:station:DISL:CATA:1,2013-10-01T22:30:00Z,30.3085,-88.1395,2.304,8.32,1111122 
DISL,ioos:station:DISL:CATA:1,2013-10-01T23:00:00Z,30.3085,-88.1395,2.311,8.22,1111122 
DISL,ioos:station:DISL:CATA:1,2013-10-01T23:30:00Z,30.3085,-88.1395,2.327,8.14,1111122 
DISL,ioos:station:DISL:CATA:1,2013-10-02T00:00:00Z,30.3085,-88.1395,2.347,7.91,1111122 
DISL,ioos:station:DISL:CATA:1,2013-10-02T00:30:00Z,30.3085,-88.1395,2.35,7.76,1111122 
DISL,ioos:station:DISL:CATA:1,2013-10-02T01:00:00Z,30.3085,-88.1395,2.358,7.6,1111122 
DISL,ioos:station:DISL:CATA:1,2013-10-02T01:30:00Z,30.3085,-88.1395,2.353,7.13,1111122 
DISL,ioos:station:DISL:CATA:1,2013-10-02T02:00:00Z,30.3085,-88.1395,2.358,7.22,1111122 
DISL,ioos:station:DISL:CATA:1,2013-10-02T02:30:00Z,30.3085,-88.1395,2.348,7.16,1111122 
DISL,ioos:station:DISL:CATA:1,2013-10-02T03:00:00Z,30.3085,-88.1395,2.346,7.15,1111122 
DISL,ioos:station:DISL:CATA:1,2013-10-02T03:30:00Z,30.3085,-88.1395,2.358,7.23,1111122 
DISL,ioos:station:DISL:CATA:1,2013-10-02T04:00:00Z,30.3085,-88.1395,2.369,7.36,1111122 
DISL,ioos:station:DISL:CATA:1,2013-10-02T04:30:00Z,30.3085,-88.1395,2.369,7.37,1111122 
DISL,ioos:station:DISL:CATA:1,2013-10-02T05:00:00Z,30.3085,-88.1395,2.362,7.31,1111122 
DISL,ioos:station:DISL:CATA:1,2013-10-02T05:30:00Z,30.3085,-88.1395,2.368,7.3,1111122 
DISL,ioos:station:DISL:CATA:1,2013-10-02T06:00:00Z,30.3085,-88.1395,2.379,7.25,1111122 
DISL,ioos:station:DISL:CATA:1,2013-10-02T06:30:00Z,30.3085,-88.1395,2.372,7.31,1111122 
DISL,ioos:station:DISL:CATA:1,2013-10-02T07:00:00Z,30.3085,-88.1395,2.354,7.33,1111122 
DISL,ioos:station:DISL:CATA:1,2013-10-02T07:30:00Z,30.3085,-88.1395,2.354,7.28,1111122 
DISL,ioos:station:DISL:CATA:1,2013-10-02T08:00:00Z,30.3085,-88.1395,2.358,7.29,1111122 
DISL,ioos:station:DISL:CATA:1,2013-10-02T08:30:00Z,30.3085,-88.1395,2.348,7.36,1111122 
DISL,ioos:station:DISL:CATA:1,2013-10-02T09:00:00Z,30.3085,-88.1395,2.34,7.39,1111122 
DISL,ioos:station:DISL:CATA:1,2013-10-02T09:30:00Z,30.3085,-88.1395,2.335,7.38,1111122 
DISL,ioos:station:DISL:CATA:1,2013-10-02T10:00:00Z,30.3085,-88.1395,2.32,7.38,1111122 
DISL,ioos:station:DISL:CATA:1,2013-10-02T10:30:00Z,30.3085,-88.1395,2.324,7.37,1111122 
DISL,ioos:station:DISL:CATA:1,2013-10-02T11:00:00Z,30.3085,-88.1395,2.311,7.37,1111122 
DISL,ioos:station:DISL:CATA:1,2013-10-02T11:30:00Z,30.3085,-88.1395,2.317,7.39,1111122 
DISL,ioos:station:DISL:CATA:1,2013-10-02T12:00:00Z,30.3085,-88.1395,2.347,7.37,1111122 
DISL,ioos:station:DISL:CATA:1,2013-10-02T12:30:00Z,30.3085,-88.1395,2.403,7.32,1111122 
DISL,ioos:station:DISL:CATA:1,2013-10-02T13:00:00Z,30.3085,-88.1395,2.422,7.24,1111122 
DISL,ioos:station:DISL:CATA:1,2013-10-02T13:30:00Z,30.3085,-88.1395,2.429,7.15,1111122 
DISL,ioos:station:DISL:CATA:1,2013-10-02T14:00:00Z,30.3085,-88.1395,2.424,6.76,1111122 
DISL,ioos:station:DISL:CATA:1,2013-10-02T14:30:00Z,30.3085,-88.1395,2.452,6.55,1111122 
DISL,ioos:station:DISL:CATA:1,2013-10-02T15:00:00Z,30.3085,-88.1395,2.43,6.75,1111122 
DISL,ioos:station:DISL:CATA:1,2013-10-02T15:30:00Z,30.3085,-88.1395,2.446,6.06,1111122 
DISL,ioos:station:DISL:CATA:1,2013-10-02T16:00:00Z,30.3085,-88.1395,2.443,6.15,1111122 
DISL,ioos:station:DISL:CATA:1,2013-10-02T16:30:00Z,30.3085,-88.1395,2.439,6.35,1111122 
DISL,ioos:station:DISL:CATA:1,2013-10-02T17:00:00Z,30.3085,-88.1395,2.415,6.54,1111122 
DISL,ioos:station:DISL:CATA:1,2013-10-02T17:30:00Z,30.3085,-88.1395,2.413,6.72,1111122 
DISL,ioos:station:DISL:CATA:1,2013-10-02T18:00:00Z,30.3085,-88.1395,2.406,7.02,1111122 
DISL,ioos:station:DISL:CATA:1,2013-10-02T18:30:00Z,30.3085,-88.1395,2.392,7.24,1111122 
DISL,ioos:station:DISL:CATA:1,2013-10-02T19:00:00Z,30.3085,-88.1395,2.365,7.43,1111122 
DISL,ioos:station:DISL:CATA:1,2013-10-02T19:30:00Z,30.3085,-88.1395,2.342,7.6,1111122 
DISL,ioos:station:DISL:CATA:1,2013-10-02T20:00:00Z,30.3085,-88.1395,2.316,7.7,1111122 
DISL,ioos:station:DISL:CATA:1,2013-10-02T20:30:00Z,30.3085,-88.1395,2.308,7.75,1111122 
DISL,ioos:station:DISL:CATA:1,2013-10-02T21:00:00Z,30.3085,-88.1395,2.311,7.93,1111122 
DISL,ioos:station:DISL:CATA:1,2013-10-02T21:30:00Z,30.3085,-88.1395,2.306,8.08,1111122 
DISL,ioos:station:DISL:CATA:1,2013-10-02T22:00:00Z,30.3085,-88.1395,2.321,8.18,1111122 
DISL,ioos:station:DISL:CATA:1,2013-10-02T22:30:00Z,30.3085,-88.1395,2.338,8.14,1111122 
DISL,ioos:station:DISL:CATA:1,2013-10-02T23:00:00Z,30.3085,-88.1395,2.323,8.22,1111122 
DISL,ioos:station:DISL:CATA:1,2013-10-02T23:30:00Z,30.3085,-88.1395,2.33,8.1,1111122 
DISL,ioos:station:DISL:CATA:1,2013-10-03T00:00:00Z,30.3085,-88.1395,2.35,7.95,1111122 
DISL,ioos:station:DISL:CATA:1,2013-10-03T00:30:00Z,30.3085,-88.1395,2.385,7.85,1111122 
DISL,ioos:station:DISL:CATA:1,2013-10-03T01:00:00Z,30.3085,-88.1395,2.422,7.77,1111122 
DISL,ioos:station:DISL:CATA:1,2013-10-03T01:30:00Z,30.3085,-88.1395,2.436,7.58,1111122 
DISL,ioos:station:DISL:CATA:1,2013-10-03T02:00:00Z,30.3085,-88.1395,2.452,7.46,1111122 
DISL,ioos:station:DISL:CATA:1,2013-10-03T02:30:00Z,30.3085,-88.1395,2.47,6.92,1111122 
DISL,ioos:station:DISL:CATA:1,2013-10-03T03:00:00Z,30.3085,-88.1395,2.483,7.01,1111122 
DISL,ioos:station:DISL:CATA:1,2013-10-03T03:30:00Z,30.3085,-88.1395,2.494,6.83,1111122 
DISL,ioos:station:DISL:CATA:1,2013-10-03T04:00:00Z,30.3085,-88.1395,2.495,6.71,1111122 
DISL,ioos:station:DISL:CATA:1,2013-10-03T04:30:00Z,30.3085,-88.1395,2.501,6.7,1111122 
DISL,ioos:station:DISL:CATA:1,2013-10-03T05:00:00Z,30.3085,-88.1395,2.489,6.57,1111122 
DISL,ioos:station:DISL:CATA:1,2013-10-03T05:30:00Z,30.3085,-88.1395,2.49,6.29,1111122 
DISL,ioos:station:DISL:CATA:1,2013-10-03T06:00:00Z,30.3085,-88.1395,2.5,6.36,1111122 
DISL,ioos:station:DISL:CATA:1,2013-10-03T06:30:00Z,30.3085,-88.1395,2.485,7.0,1111122 
DISL,ioos:station:DISL:CATA:1,2013-10-03T07:00:00Z,30.3085,-88.1395,2.501,7.14,1111122 
DISL,ioos:station:DISL:CATA:1,2013-10-03T07:30:00Z,30.3085,-88.1395,2.477,7.02,1111122 
DISL,ioos:station:DISL:CATA:1,2013-10-03T08:00:00Z,30.3085,-88.1395,2.461,7.11,1111122 
DISL,ioos:station:DISL:CATA:1,2013-10-03T08:30:00Z,30.3085,-88.1395,2.428,7.13,1111122 
DISL,ioos:station:DISL:CATA:1,2013-10-03T09:00:00Z,30.3085,-88.1395,2.409,7.09,1111122 
DISL,ioos:station:DISL:CATA:1,2013-10-03T09:30:00Z,30.3085,-88.1395,2.404,7.07,1111122 
DISL,ioos:station:DISL:CATA:1,2013-10-03T10:00:00Z,30.3085,-88.1395,2.386,7.09,1111122 
DISL,ioos:station:DISL:CATA:1,2013-10-03T10:30:00Z,30.3085,-88.1395,2.378,7.09,1111122 
DISL,ioos:station:DISL:CATA:1,2013-10-03T11:00:00Z,30.3085,-88.1395,2.381,7.06,1111122 
DISL,ioos:station:DISL:CATA:1,2013-10-03T11:30:00Z,30.3085,-88.1395,2.385,7.0,1111122 
DISL,ioos:station:DISL:CATA:1,2013-10-03T12:00:00Z,30.3085,-88.1395,2.414,7.1,1111122 
DISL,ioos:station:DISL:CATA:1,2013-10-03T12:30:00Z,30.3085,-88.1395,2.434,7.19,1111122 
DISL,ioos:station:DISL:CATA:1,2013-10-03T13:00:00Z,30.3085,-88.1395,2.45,7.24,1111122 
DISL,ioos:station:DISL:CATA:1,2013-10-03T13:30:00Z,30.3085,-88.1395,2.462,7.11,1111122 
DISL,ioos:station:DISL:CATA:1,2013-10-03T14:00:00Z,30.3085,-88.1395,2.466,6.95,1111122 
DISL,ioos:station:DISL:CATA:1,2013-10-03T14:30:00Z,30.3085,-88.1395,2.461,6.82,1111122 
DISL,ioos:station:DISL:CATA:1,2013-10-03T15:00:00Z,30.3085,-88.1395,2.465,6.9,1111122 
DISL,ioos:station:DISL:CATA:1,2013-10-03T15:30:00Z,30.3085,-88.1395,2.471,7.29,1111122 
DISL,ioos:station:DISL:CATA:1,2013-10-03T16:00:00Z,30.3085,-88.1395,2.481,7.24,1111122 
DISL,ioos:station:DISL:CATA:1,2013-10-03T16:30:00Z,30.3085,-88.1395,2.488,7.53,1111122 
DISL,ioos:station:DISL:CATA:1,2013-10-03T17:00:00Z,30.3085,-88.1395,2.507,7.55,1111122 
DISL,ioos:station:DISL:CATA:1,2013-10-03T17:30:00Z,30.3085,-88.1395,2.509,7.73,1111122 
DISL,ioos:station:DISL:CATA:1,2013-10-03T18:00:00Z,30.3085,-88.1395,2.504,7.69,1111122 
DISL,ioos:station:DISL:CATA:1,2013-10-03T18:30:00Z,30.3085,-88.1395,2.491,7.3,1111122 
DISL,ioos:station:DISL:CATA:1,2013-10-03T19:00:00Z,30.3085,-88.1395,2.486,7.59,1111122 
DISL,ioos:station:DISL:CATA:1,2013-10-03T19:30:00Z,30.3085,-88.1395,2.464,7.7,1111122 
DISL,ioos:station:DISL:CATA:1,2013-10-03T20:00:00Z,30.3085,-88.1395,2.464,7.9,1111122 
DISL,ioos:station:DISL:CATA:1,2013-10-03T20:30:00Z,30.3085,-88.1395,2.464,7.99,1111122 
DISL,ioos:station:DISL:CATA:1,2013-10-03T21:00:00Z,30.3085,-88.1395,2.423,7.95,1111122 
DISL,ioos:station:DISL:CATA:1,2013-10-03T21:30:00Z,30.3085,-88.1395,2.44,7.81,1111122 
DISL,ioos:station:DISL:CATA:1,2013-10-03T22:00:00Z,30.3085,-88.1395,2.469,7.7,1111122 
DISL,ioos:station:DISL:CATA:1,2013-10-03T22:30:00Z,30.3085,-88.1395,2.472,7.51,1111122 
DISL,ioos:station:DISL:CATA:1,2013-10-03T23:00:00Z,30.3085,-88.1395,2.437,7.28,1111122 
DISL,ioos:station:DISL:CATA:1,2013-10-03T23:30:00Z,30.3085,-88.1395,2.433,7.26,1111122 
DISL,ioos:station:DISL:CATA:1,2013-10-04T00:00:00Z,30.3085,-88.1395,2.464,7.19,1111122 
DISL,ioos:station:DISL:CATA:1,2013-10-04T00:30:00Z,30.3085,-88.1395,2.507,7.16,1111122 
DISL,ioos:station:DISL:CATA:1,2013-10-04T01:00:00Z,30.3085,-88.1395,2.492,6.87,1111122 
DISL,ioos:station:DISL:CATA:1,2013-10-04T01:30:00Z,30.3085,-88.1395,2.514,6.78,1111122 
DISL,ioos:station:DISL:CATA:1,2013-10-04T02:00:00Z,30.3085,-88.1395,2.53,6.78,1111122 
DISL,ioos:station:DISL:CATA:1,2013-10-04T02:30:00Z,30.3085,-88.1395,2.569,6.74,1111122 
DISL,ioos:station:DISL:CATA:1,2013-10-04T03:00:00Z,30.3085,-88.1395,2.579,6.69,1111122 
DISL,ioos:station:DISL:CATA:1,2013-10-04T03:30:00Z,30.3085,-88.1395,2.577,6.46,1111122 
DISL,ioos:station:DISL:CATA:1,2013-10-04T04:00:00Z,30.3085,-88.1395,2.559,6.22,1111122 
DISL,ioos:station:DISL:CATA:1,2013-10-04T04:30:00Z,30.3085,-88.1395,2.544,6.25,1111122 
DISL,ioos:station:DISL:CATA:1,2013-10-04T05:00:00Z,30.3085,-88.1395,2.52,5.83,1111122 
DISL,ioos:station:DISL:CATA:1,2013-10-04T05:30:00Z,30.3085,-88.1395,2.503,6.1,1111122 
DISL,ioos:station:DISL:CATA:1,2013-10-04T06:00:00Z,30.3085,-88.1395,2.494,6.0,1111122 
DISL,ioos:station:DISL:CATA:1,2013-10-04T06:30:00Z,30.3085,-88.1395,2.482,6.24,1111122 
DISL,ioos:station:DISL:CATA:1,2013-10-04T07:00:00Z,30.3085,-88.1395,2.472,6.34,1111122 
DISL,ioos:station:DISL:CATA:1,2013-10-04T07:30:00Z,30.3085,-88.1395,2.443,6.43,1111122 
DISL,ioos:station:DISL:CATA:1,2013-10-04T08:00:00Z,30.3085,-88.1395,2.398,6.48,1111122 
DISL,ioos:station:DISL:CATA:1,2013-10-04T08:30:00Z,30.3085,-88.1395,2.377,6.58,1111122 
DISL,ioos:station:DISL:CATA:1,2013-10-04T09:00:00Z,30.3085,-88.1395,2.36,6.69,1111122 
DISL,ioos:station:DISL:CATA:1,2013-10-04T09:30:00Z,30.3085,-88.1395,2.322,6.7,1111122 
DISL,ioos:station:DISL:CATA:1,2013-10-04T10:00:00Z,30.3085,-88.1395,2.296,6.68,1111122 
DISL,ioos:station:DISL:CATA:1,2013-10-04T10:30:00Z,30.3085,-88.1395,2.282,6.59,1111122 
DISL,ioos:station:DISL:CATA:1,2013-10-04T11:00:00Z,30.3085,-88.1395,2.283,6.62,1111122 
DISL,ioos:station:DISL:CATA:1,2013-10-04T11:30:00Z,30.3085,-88.1395,2.285,6.62,1111122 
DISL,ioos:station:DISL:CATA:1,2013-10-04T12:00:00Z,30.3085,-88.1395,2.297,6.55,1111122 
DISL,ioos:station:DISL:CATA:1,2013-10-04T12:30:00Z,30.3085,-88.1395,2.332,6.54,1111122 
DISL,ioos:station:DISL:CATA:1,2013-10-04T13:00:00Z,30.3085,-88.1395,2.36,6.57,1111122 
DISL,ioos:station:DISL:CATA:1,2013-10-04T13:30:00Z,30.3085,-88.1395,2.381,6.54,1111122 
DISL,ioos:station:DISL:CATA:1,2013-10-04T14:00:00Z,30.3085,-88.1395,2.4,6.25,1111122 
DISL,ioos:station:DISL:CATA:1,2013-10-04T14:30:00Z,30.3085,-88.1395,2.412,5.85,1111122 
DISL,ioos:station:DISL:CATA:1,2013-10-04T15:00:00Z,30.3085,-88.1395,2.416,6.2,1111122 
DISL,ioos:station:DISL:CATA:1,2013-10-04T15:30:00Z,30.3085,-88.1395,2.434,6.13,1111122 
DISL,ioos:station:DISL:CATA:1,2013-10-04T16:00:00Z,30.3085,-88.1395,2.445,6.44,1111122 
DISL,ioos:station:DISL:CATA:1,2013-10-04T16:30:00Z,30.3085,-88.1395,2.457,6.45,1111122 
DISL,ioos:station:DISL:CATA:1,2013-10-04T17:00:00Z,30.3085,-88.1395,2.459,6.5,1111122 
DISL,ioos:station:DISL:CATA:1,2013-10-04T17:30:00Z,30.3085,-88.1395,2.466,6.37,1111122 
DISL,ioos:station:DISL:CATA:1,2013-10-04T18:00:00Z,30.3085,-88.1395,2.481,6.18,1111122 
DISL,ioos:station:DISL:CATA:1,2013-10-04T18:30:00Z,30.3085,-88.1395,2.494,6.03,1111122 
DISL,ioos:station:DISL:CATA:1,2013-10-04T19:00:00Z,30.3085,-88.1395,2.5,6.33,1111122 
DISL,ioos:station:DISL:CATA:1,2013-10-04T19:30:00Z,30.3085,-88.1395,2.506,6.73,1111122 
DISL,ioos:station:DISL:CATA:1,2013-10-04T20:00:00Z,30.3085,-88.1395,2.508,6.75,1111122 
DISL,ioos:station:DISL:CATA:1,2013-10-04T20:30:00Z,30.3085,-88.1395,2.513,6.54,1111122 
DISL,ioos:station:DISL:CATA:1,2013-10-04T21:00:00Z,30.3085,-88.1395,2.503,6.61,1111122 
DISL,ioos:station:DISL:CATA:1,2013-10-04T21:30:00Z,30.3085,-88.1395,2.5,6.44,1111122 
DISL,ioos:station:DISL:CATA:1,2013-10-04T22:00:00Z,30.3085,-88.1395,2.514,6.97,1111122 
DISL,ioos:station:DISL:CATA:1,2013-10-04T22:30:00Z,30.3085,-88.1395,2.521,7.0,1111122 
DISL,ioos:station:DISL:CATA:1,2013-10-04T23:00:00Z,30.3085,-88.1395,2.523,6.94,1111122 
DISL,ioos:station:DISL:CATA:1,2013-10-04T23:30:00Z,30.3085,-88.1395,2.524,7.32,1111122 
DISL,ioos:station:DISL:CATA:1,2013-10-05T00:00:00Z,30.3085,-88.1395,2.528,7.44,1111122 
DISL,ioos:station:DISL:CATA:1,2013-10-05T00:30:00Z,30.3085,-88.1395,2.522,7.46,1111122 
DISL,ioos:station:DISL:CATA:1,2013-10-05T01:00:00Z,30.3085,-88.1395,2.523,7.5,1111122 
DISL,ioos:station:DISL:CATA:1,2013-10-05T01:30:00Z,30.3085,-88.1395,2.521,7.41,1111122 
DISL,ioos:station:DISL:CATA:1,2013-10-05T02:00:00Z,30.3085,-88.1395,2.525,7.37,1111122 
DISL,ioos:station:DISL:CATA:1,2013-10-05T02:30:00Z,30.3085,-88.1395,2.52,7.4,1111122 
DISL,ioos:station:DISL:CATA:1,2013-10-05T03:00:00Z,30.3085,-88.1395,2.529,7.36,1111122 
DISL,ioos:station:DISL:CATA:1,2013-10-05T03:30:00Z,30.3085,-88.1395,2.533,7.28,1111122 
DISL,ioos:station:DISL:CATA:1,2013-10-05T04:00:00Z,30.3085,-88.1395,2.534,7.21,1111122 
DISL,ioos:station:DISL:CATA:1,2013-10-05T04:30:00Z,30.3085,-88.1395,2.535,7.18,1111122 
DISL,ioos:station:DISL:CATA:1,2013-10-05T05:00:00Z,30.3085,-88.1395,2.531,7.11,1111122 
DISL,ioos:station:DISL:CATA:1,2013-10-05T05:30:00Z,30.3085,-88.1395,2.52,7.02,1111122 
DISL,ioos:station:DISL:CATA:1,2013-10-05T06:00:00Z,30.3085,-88.1395,2.516,7.07,1111122 
DISL,ioos:station:DISL:CATA:1,2013-10-05T06:30:00Z,30.3085,-88.1395,2.498,7.03,1111122 
DISL,ioos:station:DISL:CATA:1,2013-10-05T07:00:00Z,30.3085,-88.1395,2.495,7.09,1111122 
DISL,ioos:station:DISL:CATA:1,2013-10-05T07:30:00Z,30.3085,-88.1395,2.478,7.18,1111122 
DISL,ioos:station:DISL:CATA:1,2013-10-05T08:00:00Z,30.3085,-88.1395,2.455,7.08,1111122 
DISL,ioos:station:DISL:CATA:1,2013-10-05T08:30:00Z,30.3085,-88.1395,2.428,7.03,1111122 
DISL,ioos:station:DISL:CATA:1,2013-10-05T09:00:00Z,30.3085,-88.1395,2.399,7.03,1111122 
DISL,ioos:station:DISL:CATA:1,2013-10-05T09:30:00Z,30.3085,-88.1395,2.379,6.96,1111122 
DISL,ioos:station:DISL:CATA:1,2013-10-05T10:00:00Z,30.3085,-88.1395,2.338,6.96,1111122 
DISL,ioos:station:DISL:CATA:1,2013-10-05T10:30:00Z,30.3085,-88.1395,2.324,6.98,1111122 
DISL,ioos:station:DISL:CATA:1,2013-10-05T11:00:00Z,30.3085,-88.1395,2.3,6.93,1111122 
DISL,ioos:station:DISL:CATA:1,2013-10-05T11:30:00Z,30.3085,-88.1395,2.293,6.9,1111122 
DISL,ioos:station:DISL:CATA:1,2013-10-05T12:00:00Z,30.3085,-88.1395,2.277,6.87,1111122 
DISL,ioos:station:DISL:CATA:1,2013-10-05T12:30:00Z,30.3085,-88.1395,2.276,6.93,1111122 
DISL,ioos:station:DISL:CATA:1,2013-10-05T13:00:00Z,30.3085,-88.1395,2.274,6.88,1111122 
DISL,ioos:station:DISL:CATA:1,2013-10-05T13:30:00Z,30.3085,-88.1395,2.279,6.94,1111122 
DISL,ioos:station:DISL:CATA:1,2013-10-05T14:00:00Z,30.3085,-88.1395,2.29,7.02,1111122 
DISL,ioos:station:DISL:CATA:1,2013-10-05T14:30:00Z,30.3085,-88.1395,2.305,7.01,1111122 
DISL,ioos:station:DISL:CATA:1,2013-10-05T15:00:00Z,30.3085,-88.1395,2.321,7.14,1111122 
DISL,ioos:station:DISL:CATA:1,2013-10-05T15:30:00Z,30.3085,-88.1395,2.337,7.1,1111122 
DISL,ioos:station:DISL:CATA:1,2013-10-05T16:00:00Z,30.3085,-88.1395,2.349,7.02,1111122 
DISL,ioos:station:DISL:CATA:1,2013-10-05T16:30:00Z,30.3085,-88.1395,2.364,7.05,1111122 
DISL,ioos:station:DISL:CATA:1,2013-10-05T17:00:00Z,30.3085,-88.1395,2.385,7.03,1111122 
DISL,ioos:station:DISL:CATA:1,2013-10-05T17:30:00Z,30.3085,-88.1395,2.397,6.47,1111122 
DISL,ioos:station:DISL:CATA:1,2013-10-05T18:00:00Z,30.3085,-88.1395,2.414,6.6,1111122 
DISL,ioos:station:DISL:CATA:1,2013-10-05T18:30:00Z,30.3085,-88.1395,2.43,6.77,1111122 
DISL,ioos:station:DISL:CATA:1,2013-10-05T19:00:00Z,30.3085,-88.1395,2.434,7.01,1111122 
DISL,ioos:station:DISL:CATA:1,2013-10-05T19:30:00Z,30.3085,-88.1395,2.433,7.23,1111122 
DISL,ioos:station:DISL:CATA:1,2013-10-05T20:00:00Z,30.3085,-88.1395,2.424,7.28,1111122 
DISL,ioos:station:DISL:CATA:1,2013-10-05T20:30:00Z,30.3085,-88.1395,2.423,7.16,1111122 
DISL,ioos:station:DISL:CATA:1,2013-10-05T21:00:00Z,30.3085,-88.1395,2.422,7.31,1111122 
DISL,ioos:station:DISL:CATA:1,2013-10-05T21:30:00Z,30.3085,-88.1395,2.46,7.42,1111122 
DISL,ioos:station:DISL:CATA:1,2013-10-05T22:00:00Z,30.3085,-88.1395,2.472,7.53,1111122 
DISL,ioos:station:DISL:CATA:1,2013-10-05T22:30:00Z,30.3085,-88.1395,2.478,7.65,1111122 
DISL,ioos:station:DISL:CATA:1,2013-10-05T23:00:00Z,30.3085,-88.1395,2.483,7.54,1111122 
DISL,ioos:station:DISL:CATA:1,2013-10-05T23:30:00Z,30.3085,-88.1395,2.504,7.45,1111122 
DISL,ioos:station:DISL:CATA:1,2013-10-06T00:00:00Z,30.3085,-88.1395,2.522,7.19,1111122 
DISL,ioos:station:DISL:CATA:1,2013-10-06T00:30:00Z,30.3085,-88.1395,2.552,6.71,1111122 
DISL,ioos:station:DISL:CATA:1,2013-10-06T01:00:00Z,30.3085,-88.1395,2.58,6.92,1111122 
DISL,ioos:station:DISL:CATA:1,2013-10-06T01:30:00Z,30.3085,-88.1395,2.593,6.88,1111122 
DISL,ioos:station:DISL:CATA:1,2013-10-06T02:00:00Z,30.3085,-88.1395,2.612,7.03,1111122 
DISL,ioos:station:DISL:CATA:1,2013-10-06T02:30:00Z,30.3085,-88.1395,2.633,6.92,1111122 
DISL,ioos:station:DISL:CATA:1,2013-10-06T03:00:00Z,30.3085,-88.1395,2.631,7.06,1111122 
DISL,ioos:station:DISL:CATA:1,2013-10-06T03:30:00Z,30.3085,-88.1395,2.645,7.0,1111122 
DISL,ioos:station:DISL:CATA:1,2013-10-06T04:00:00Z,30.3085,-88.1395,2.653,6.94,1111122 
DISL,ioos:station:DISL:CATA:1,2013-10-06T04:30:00Z,30.3085,-88.1395,2.664,6.89,1111122 
DISL,ioos:station:DISL:CATA:1,2013-10-06T05:00:00Z,30.3085,-88.1395,2.662,6.76,1111122 
DISL,ioos:station:DISL:CATA:1,2013-10-06T05:30:00Z,30.3085,-88.1395,2.674,6.74,1111122 
DISL,ioos:station:DISL:CATA:1,2013-10-06T06:00:00Z,30.3085,-88.1395,2.653,6.88,1111122 
DISL,ioos:station:DISL:CATA:1,2013-10-06T06:30:00Z,30.3085,-88.1395,2.643,6.75,1111122 
DISL,ioos:station:DISL:CATA:1,2013-10-06T07:00:00Z,30.3085,-88.1395,2.623,6.48,1111122 
DISL,ioos:station:DISL:CATA:1,2013-10-06T07:30:00Z,30.3085,-88.1395,2.606,6.13,1111122 
DISL,ioos:station:DISL:CATA:1,2013-10-06T08:00:00Z,30.3085,-88.1395,2.581,6.18,1111122 
DISL,ioos:station:DISL:CATA:1,2013-10-06T08:30:00Z,30.3085,-88.1395,2.56,6.4,1111122 
DISL,ioos:station:DISL:CATA:1,2013-10-06T09:00:00Z,30.3085,-88.1395,2.521,6.29,1111122 
DISL,ioos:station:DISL:CATA:1,2013-10-06T09:30:00Z,30.3085,-88.1395,2.501,6.44,1111122 
DISL,ioos:station:DISL:CATA:1,2013-10-06T10:00:00Z,30.3085,-88.1395,2.472,6.47,1111122 
DISL,ioos:station:DISL:CATA:1,2013-10-06T10:30:00Z,30.3085,-88.1395,2.44,6.54,1111122 
DISL,ioos:station:DISL:CATA:1,2013-10-06T11:00:00Z,30.3085,-88.1395,2.422,6.7,1111122 
DISL,ioos:station:DISL:CATA:1,2013-10-06T11:30:00Z,30.3085,-88.1395,2.376,6.66,1111122 
DISL,ioos:station:DISL:CATA:1,2013-10-06T12:00:00Z,30.3085,-88.1395,2.383,6.66,1111122 
DISL,ioos:station:DISL:CATA:1,2013-10-06T12:30:00Z,30.3085,-88.1395,2.304,6.74,1111122 
DISL,ioos:station:DISL:CATA:1,2013-10-06T13:00:00Z,30.3085,-88.1395,2.307,6.76,1111122 
DISL,ioos:station:DISL:CATA:1,2013-10-06T13:30:00Z,30.3085,-88.1395,2.361,6.87,1111122 
DISL,ioos:station:DISL:CATA:1,2013-10-06T14:00:00Z,30.3085,-88.1395,2.344,6.85,1111122 
DISL,ioos:station:DISL:CATA:1,2013-10-06T14:30:00Z,30.3085,-88.1395,2.373,6.91,1111122 
DISL,ioos:station:DISL:CATA:1,2013-10-06T15:00:00Z,30.3085,-88.1395,2.399,6.83,1111122 
DISL,ioos:station:DISL:CATA:1,2013-10-06T15:30:00Z,30.3085,-88.1395,2.436,6.76,1111122 